Time,TemperatureF,DewpointF,PressureIn,WindDirection,WindDirectionDegrees,WindSpeedMPH,WindSpeedGustMPH,Humidity,HourlyPrecipIn,Conditions,Clouds,dailyrainin,SoftwareType,DateUTC
2016-12-03 00:00:00,60.0,-99.9,30.21,ENE,71,16.0,19.0,-999,-99.99,,,-99.99,,2016-12-03 06:00:00,
2016-12-03 00:06:00,60.0,-99.9,30.21,ENE,71,18.0,20.0,-999,-99.99,,,-99.99,,2016-12-03 06:06:00,
2016-12-03 00:16:00,60.0,-99.9,30.20,ENE,68,19.0,23.0,-999,-99.99,,,-99.99,,2016-12-03 06:16:00,
2016-12-03 00:25:00,60.0,-99.9,30.20,ENE,74,19.0,22.0,-999,-99.99,,,-99.99,,2016-12-03 06:25:00,
2016-12-03 00:37:00,59.0,-99.9,30.19,ENE,73,19.0,24.0,-999,-99.99,,,-99.99,,2016-12-03 06:37:00,
2016-12-03 00:51:00,59.0,-99.9,30.19,ENE,72,21.0,24.0,-999,-99.99,,,-99.99,,2016-12-03 06:51:00,
2016-12-03 00:59:00,59.0,-99.9,30.18,ENE,75,21.0,26.0,-999,-99.99,,,-99.99,,2016-12-03 06:59:00,
2016-12-03 01:11:00,59.0,-99.9,30.17,ENE,77,21.0,25.0,-999,-99.99,,,-99.99,,2016-12-03 07:11:00,
2016-12-03 01:18:00,59.0,-99.9,30.17,ENE,78,17.0,23.0,-999,-99.99,,,-99.99,,2016-12-03 07:18:00,
2016-12-03 01:25:00,59.0,-99.9,30.18,ENE,75,19.0,22.0,-999,-99.99,,,-99.99,,2016-12-03 07:25:00,
2016-12-03 01:40:00,59.0,-99.9,30.17,ENE,77,16.0,21.0,-999,-99.99,,,-99.99,,2016-12-03 07:40:00,
2016-12-03 01:48:00,59.0,-99.9,30.16,East,84,17.0,22.0,-999,-99.99,,,-99.99,,2016-12-03 07:48:00,
2016-12-03 02:01:00,59.0,-99.9,30.16,East,89,16.0,21.0,-999,-99.99,,,-99.99,,2016-12-03 08:01:00,
2016-12-03 02:07:00,59.0,-99.9,30.15,East,90,19.0,27.0,-999,-99.99,,,-99.99,,2016-12-03 08:07:00,
2016-12-03 02:19:00,59.0,-99.9,30.15,East,92,16.0,21.0,-999,-99.99,,,-99.99,,2016-12-03 08:19:00,
2016-12-03 02:26:00,59.0,-99.9,30.15,East,90,17.0,21.0,-999,-99.99,,,-99.99,,2016-12-03 08:26:00,
2016-12-03 02:38:00,59.0,-99.9,30.16,East,87,14.0,19.0,-999,-99.99,,,-99.99,,2016-12-03 08:38:00,
2016-12-03 02:58:00,59.0,-99.9,30.16,East,89,13.0,16.0,-999,-99.99,,,-99.99,,2016-12-03 08:58:00,
2016-12-03 03:07:00,59.0,-99.9,30.17,East,90,10.0,13.0,-999,-99.99,,,-99.99,,2016-12-03 09:07:00,
2016-12-03 03:17:00,59.0,-99.9,30.17,East,89,12.0,16.0,-999,-99.99,,,-99.99,,2016-12-03 09:17:00,
2016-12-03 03:34:00,59.0,-99.9,30.18,ENE,66,10.0,12.0,-999,-99.99,,,-99.99,,2016-12-03 09:34:00,
2016-12-03 03:44:00,59.0,-99.9,30.18,ENE,62,15.0,17.0,-999,-99.99,,,-99.99,,2016-12-03 09:44:00,
2016-12-03 04:04:00,58.0,-99.9,30.14,ENE,75,21.0,24.0,-999,-99.99,,,-99.99,,2016-12-03 10:04:00,
2016-12-03 04:13:00,58.0,-99.9,30.13,ENE,74,21.0,25.0,-999,-99.99,,,-99.99,,2016-12-03 10:13:00,
2016-12-03 04:24:00,58.0,-99.9,30.11,East,81,22.0,27.0,-999,-99.99,,,-99.99,,2016-12-03 10:24:00,
2016-12-03 04:44:00,58.0,-99.9,30.10,East,91,21.0,28.0,-999,-99.99,,,-99.99,,2016-12-03 10:44:00,
2016-12-03 04:54:00,58.0,-99.9,30.12,East,80,16.0,20.0,-999,-99.99,,,-99.99,,2016-12-03 10:54:00,
2016-12-03 05:04:00,58.0,-99.9,30.12,ENE,78,18.0,25.0,-999,-99.99,,,-99.99,,2016-12-03 11:04:00,
2016-12-03 05:13:00,59.0,-99.9,30.13,ENE,73,21.0,25.0,-999,-99.99,,,-99.99,,2016-12-03 11:13:00,
2016-12-03 05:34:00,59.0,-99.9,30.13,East,81,19.0,25.0,-999,-99.99,,,-99.99,,2016-12-03 11:34:00,
2016-12-03 05:44:00,59.0,-99.9,30.14,East,80,18.0,23.0,-999,-99.99,,,-99.99,,2016-12-03 11:44:00,
2016-12-03 05:57:00,59.0,-99.9,30.13,ENE,77,18.0,23.0,-999,-99.99,,,-99.99,,2016-12-03 11:57:00,
2016-12-03 06:07:00,59.0,-99.9,30.13,ENE,75,20.0,25.0,-999,-99.99,,,-99.99,,2016-12-03 12:07:00,
2016-12-03 06:16:00,59.0,-99.9,30.13,ENE,76,20.0,24.0,-999,-99.99,,,-99.99,,2016-12-03 12:16:00,
2016-12-03 06:38:00,59.0,-99.9,30.14,East,85,17.0,22.0,-999,-99.99,,,-99.99,,2016-12-03 12:38:00,
2016-12-03 06:51:00,59.0,-99.9,30.14,East,81,16.0,21.0,-999,-99.99,,,-99.99,,2016-12-03 12:51:00,
2016-12-03 06:58:00,59.0,-99.9,30.14,East,82,17.0,22.0,-999,-99.99,,,-99.99,,2016-12-03 12:58:00,
2016-12-03 07:08:00,59.0,-99.9,30.14,East,87,15.0,21.0,-999,-99.99,,,-99.99,,2016-12-03 13:08:00,
2016-12-03 07:17:00,59.0,-99.9,30.14,East,83,16.0,22.0,-999,-99.99,,,-99.99,,2016-12-03 13:17:00,
2016-12-03 07:25:00,59.0,-99.9,30.15,ENE,78,17.0,22.0,-999,-99.99,,,-99.99,,2016-12-03 13:25:00,
2016-12-03 07:50:00,59.0,-99.9,30.15,ENE,76,18.0,22.0,-999,-99.99,,,-99.99,,2016-12-03 13:50:00,
2016-12-03 07:58:00,59.0,-99.9,30.16,ENE,71,21.0,26.0,-999,-99.99,,,-99.99,,2016-12-03 13:58:00,
2016-12-03 08:05:00,59.0,-99.9,30.16,ENE,75,21.0,26.0,-999,-99.99,,,-99.99,,2016-12-03 14:05:00,
2016-12-03 08:17:00,59.0,-99.9,30.16,ENE,74,23.0,26.0,-999,-99.99,,,-99.99,,2016-12-03 14:17:00,
2016-12-03 08:25:00,59.0,-99.9,30.17,ENE,77,20.0,24.0,-999,-99.99,,,-99.99,,2016-12-03 14:25:00,
2016-12-03 08:52:00,59.0,-99.9,30.16,ENE,78,20.0,26.0,-999,-99.99,,,-99.99,,2016-12-03 14:52:00,
2016-12-03 08:59:00,59.0,-99.9,30.16,East,80,19.0,25.0,-999,-99.99,,,-99.99,,2016-12-03 14:59:00,
2016-12-03 09:06:00,59.0,-99.9,30.16,East,82,19.0,25.0,-999,-99.99,,,-99.99,,2016-12-03 15:06:00,
2016-12-03 09:17:00,59.0,-99.9,30.16,East,80,20.0,26.0,-999,-99.99,,,-99.99,,2016-12-03 15:17:00,
2016-12-03 09:34:00,59.0,-99.9,30.15,East,85,18.0,25.0,-999,-99.99,,,-99.99,,2016-12-03 15:34:00,
2016-12-03 09:44:00,59.0,-99.9,30.15,East,84,19.0,25.0,-999,-99.99,,,-99.99,,2016-12-03 15:44:00,
2016-12-03 09:54:00,59.0,-99.9,30.16,East,84,18.0,26.0,-999,-99.99,,,-99.99,,2016-12-03 15:54:00,
2016-12-03 10:04:00,59.0,-99.9,30.16,East,86,15.0,22.0,-999,-99.99,,,-99.99,,2016-12-03 16:04:00,
2016-12-03 10:13:00,59.0,-99.9,30.16,East,83,17.0,23.0,-999,-99.99,,,-99.99,,2016-12-03 16:13:00,
2016-12-03 10:36:00,60.0,-99.9,30.16,East,86,15.0,-999.0,-999,-99.99,,,-99.99,,2016-12-03 16:36:00,
2016-12-03 10:57:00,61.0,-99.9,30.15,East,83,16.0,-999.0,-999,-99.99,,,-99.99,,2016-12-03 16:57:00,
2016-12-03 11:04:00,60.0,-99.9,30.16,East,86,17.0,24.0,-999,-99.99,,,-99.99,,2016-12-03 17:04:00,
2016-12-03 11:14:00,60.0,-99.9,30.15,East,85,15.0,20.0,-999,-99.99,,,-99.99,,2016-12-03 17:14:00,